KAL1211 ZJHK-ZHCC

Flight info

Callsign KAL1211
Flight time 2h 35m
Altitude 38100
Route AGTEL9XD AGTEL W71 LH R339 BHY W159 IVPUB/K0913S1130 W120 ENKUS R343 EMVUT/K0900S1190 R343 GOSMA W82 UPMAT W56 IGMIG IGM6U
Aircraft B77W/H-SDE1E2E3FGHIJ2J3J4J5M1RWXY/LB1D1

Departure

Time 2026-05-07 11:51
Airport Haikou Meilan International Airport (ZJHK)

Arrival

Time 2026-05-07 14:26
Airport Zhengzhou Xinzheng International Airport (ZHCC)
Time Latitude Longitude Altitude Speed Heading
2026-05-07 11:39 19.94864 110.45840 63 ft 0 kts 179°
2026-05-07 11:40 19.94866 110.45840 55 ft 3 kts 179°
2026-05-07 11:40 19.94887 110.45840 54 ft 3 kts 179°
2026-05-07 11:40 19.94907 110.45840 57 ft 3 kts 179°
2026-05-07 11:41 19.94928 110.45839 54 ft 3 kts 179°
2026-05-07 11:41 19.94945 110.45839 53 ft 3 kts 192°
2026-05-07 11:41 19.94961 110.45846 53 ft 3 kts 237°
2026-05-07 11:41 19.94968 110.45865 53 ft 3 kts 265°
2026-05-07 11:42 19.94969 110.45886 53 ft 3 kts 269°
2026-05-07 11:42 19.94970 110.45903 53 ft 0 kts 261°
2026-05-07 11:44 19.94969 110.45896 53 ft 5 kts 261°
2026-05-07 11:44 19.94964 110.45826 54 ft 14 kts 269°
2026-05-07 11:44 19.94963 110.45721 56 ft 14 kts 270°
2026-05-07 11:45 19.94977 110.45618 57 ft 14 kts 300°
2026-05-07 11:45 19.95047 110.45543 52 ft 15 kts 330°
2026-05-07 11:45 19.95146 110.45532 54 ft 15 kts 359°
2026-05-07 11:45 19.95207 110.45510 51 ft 7 kts 281°
2026-05-07 11:46 19.95202 110.45442 60 ft 12 kts 266°
2026-05-07 11:46 19.95201 110.45337 59 ft 17 kts 271°
2026-05-07 11:46 19.95202 110.45196 58 ft 22 kts 270°
2026-05-07 11:46 19.95202 110.45020 57 ft 23 kts 269°
2026-05-07 11:47 19.95201 110.44876 57 ft 12 kts 270°
2026-05-07 11:47 19.95265 110.44819 51 ft 16 kts
2026-05-07 11:47 19.95370 110.44877 49 ft 19 kts 70°
2026-05-07 11:47 19.95372 110.44913 53 ft 0 kts 89°
2026-05-07 11:51 19.95373 110.44953 56 ft 32 kts 90°
2026-05-07 11:51 19.95374 110.45647 63 ft 154 kts 90°
2026-05-07 11:51 19.95369 110.47045 694 ft 209 kts 91°
2026-05-07 11:52 19.95396 110.48626 2123 ft 222 kts 89°
2026-05-07 11:52 19.95858 110.50283 2899 ft 248 kts 56°
2026-05-07 11:52 19.97262 110.51381 3806 ft 258 kts 19°
2026-05-07 11:52 19.99056 110.51516 4832 ft 263 kts 349°
2026-05-07 11:53 20.00787 110.50886 5859 ft 264 kts 336°
2026-05-07 11:53 20.02462 110.50027 6787 ft 273 kts 333°
2026-05-07 11:53 20.04179 110.49092 7672 ft 281 kts 332°
2026-05-07 11:53 20.05930 110.48133 8685 ft 285 kts 332°
2026-05-07 11:54 20.07704 110.47169 9750 ft 288 kts 332°
2026-05-07 11:54 20.09506 110.46196 10653 ft 296 kts 332°
2026-05-07 11:54 20.11425 110.45168 11028 ft 324 kts 332°
2026-05-07 11:54 20.13539 110.44042 11264 ft 355 kts 332°
2026-05-07 11:55 20.15833 110.42827 11668 ft 377 kts 332°
2026-05-07 11:55 20.18217 110.41568 12456 ft 386 kts 332°
2026-05-07 11:55 20.20639 110.40290 13410 ft 391 kts 332°
2026-05-07 11:55 20.23093 110.38993 14249 ft 396 kts 332°
2026-05-07 11:56 20.25579 110.37691 15068 ft 400 kts 333°
2026-05-07 11:56 20.28192 110.36601 15844 ft 407 kts 340°
2026-05-07 11:56 20.30913 110.35697 16667 ft 412 kts 341°
2026-05-07 11:56 20.33674 110.34830 17450 ft 416 kts 341°
2026-05-07 11:57 20.36466 110.33934 18202 ft 421 kts 341°
2026-05-07 11:57 20.39274 110.33000 18854 ft 425 kts 340°
2026-05-07 11:57 20.42096 110.32035 19521 ft 428 kts 340°
2026-05-07 11:57 20.44943 110.31051 20189 ft 431 kts 340°
2026-05-07 11:58 20.47807 110.30059 20872 ft 435 kts 340°
2026-05-07 11:58 20.50757 110.29275 21432 ft 441 kts 352°
2026-05-07 11:58 20.53835 110.29328 21941 ft 446 kts
2026-05-07 11:58 20.56949 110.29616 22472 ft 452 kts
2026-05-07 11:59 20.60089 110.29898 23127 ft 454 kts
2026-05-07 11:59 20.63206 110.30155 23738 ft 456 kts
2026-05-07 11:59 20.66423 110.30397 24249 ft 460 kts
2026-05-07 11:59 20.69628 110.30622 24721 ft 464 kts
2026-05-07 12:00 20.72821 110.30837 25168 ft 467 kts
2026-05-07 12:00 20.76079 110.31053 25647 ft 471 kts
2026-05-07 12:00 20.79361 110.31271 26112 ft 474 kts
2026-05-07 12:00 20.82666 110.31492 26579 ft 478 kts
2026-05-07 12:01 20.85994 110.31715 27007 ft 481 kts
2026-05-07 12:01 20.89347 110.31941 27432 ft 485 kts
2026-05-07 12:01 20.92721 110.32169 27855 ft 488 kts
2026-05-07 12:01 20.96123 110.32398 28269 ft 491 kts
2026-05-07 12:02 20.99544 110.32628 28665 ft 494 kts
2026-05-07 12:02 21.02986 110.32815 29033 ft 497 kts
2026-05-07 12:02 21.05326 110.32920 29270 ft 497 kts 360°
2026-05-07 12:02 21.09845 110.32364 29487 ft 498 kts 340°
2026-05-07 12:03 21.11948 110.31393 29672 ft 497 kts 329°
2026-05-07 12:03 21.14752 110.29248 30048 ft 495 kts 317°
2026-05-07 12:03 21.17065 110.26543 30455 ft 492 kts 304°
2026-05-07 12:03 21.18757 110.23394 30840 ft 487 kts 297°
2026-05-07 12:04 21.20320 110.20170 31205 ft 487 kts 297°
2026-05-07 12:04 21.21870 110.16948 31637 ft 486 kts 297°
2026-05-07 12:04 21.23425 110.13749 32137 ft 483 kts 297°
2026-05-07 12:04 21.24993 110.10566 32585 ft 481 kts 298°
2026-05-07 12:05 21.26566 110.07409 33023 ft 480 kts 298°
2026-05-07 12:05 21.28146 110.04259 33470 ft 479 kts 298°
2026-05-07 12:05 21.29726 110.01121 33930 ft 477 kts 298°
2026-05-07 12:05 21.31298 109.98001 34306 ft 476 kts 298°
2026-05-07 12:06 21.32868 109.94880 34677 ft 475 kts 298°
2026-05-07 12:06 21.34434 109.91765 35039 ft 474 kts 298°
2026-05-07 12:06 21.35994 109.88659 35408 ft 473 kts 298°
2026-05-07 12:06 21.37548 109.85561 35765 ft 472 kts 298°
2026-05-07 12:07 21.39100 109.82465 36121 ft 471 kts 298°
2026-05-07 12:07 21.40648 109.79375 36479 ft 470 kts 297°
2026-05-07 12:07 21.42172 109.76330 36798 ft 469 kts 297°
2026-05-07 12:07 21.43717 109.73243 36977 ft 472 kts 297°
2026-05-07 12:08 21.45273 109.70129 37013 ft 475 kts 297°
2026-05-07 12:08 21.48385 109.63900 37026 ft 471 kts 297°
2026-05-07 12:09 21.51460 109.57739 37034 ft 467 kts 297°
2026-05-07 12:09 21.54519 109.51603 37037 ft 466 kts 297°
2026-05-07 12:10 21.58085 109.45866 37035 ft 466 kts 317°
2026-05-07 12:10 21.60742 109.43861 37051 ft 469 kts 329°
2026-05-07 12:10 21.63758 109.42485 37031 ft 475 kts 342°
2026-05-07 12:11 21.70322 109.41525 37036 ft 479 kts 351°
2026-05-07 12:11 21.76982 109.40791 37039 ft 483 kts 351°
2026-05-07 12:12 21.83681 109.39974 37040 ft 486 kts 351°
2026-05-07 12:12 21.90404 109.39105 37031 ft 487 kts 350°
2026-05-07 12:13 21.97128 109.38228 37035 ft 486 kts 351°
2026-05-07 12:13 22.03818 109.37359 37022 ft 483 kts 351°
2026-05-07 12:14 22.10469 109.36495 37028 ft 480 kts 351°
2026-05-07 12:14 22.17036 109.35641 37032 ft 478 kts 351°
2026-05-07 12:15 22.23634 109.34786 37032 ft 477 kts 352°
2026-05-07 12:15 22.30285 109.34714 37045 ft 480 kts
2026-05-07 12:16 22.36921 109.35819 37049 ft 484 kts
2026-05-07 12:16 22.43560 109.37189 37044 ft 487 kts
2026-05-07 12:17 22.50238 109.38532 37045 ft 489 kts
2026-05-07 12:17 22.56947 109.39849 37044 ft 491 kts
2026-05-07 12:18 22.63676 109.41167 37044 ft 492 kts
2026-05-07 12:18 22.70419 109.42492 37044 ft 493 kts
2026-05-07 12:19 22.77171 109.43822 37042 ft 493 kts
2026-05-07 12:19 22.83916 109.45159 37039 ft 493 kts
2026-05-07 12:20 22.90665 109.46499 37045 ft 493 kts
2026-05-07 12:20 22.97413 109.47839 37040 ft 494 kts
2026-05-07 12:21 23.04172 109.49183 37045 ft 494 kts
2026-05-07 12:21 23.10929 109.50528 37044 ft 494 kts
2026-05-07 12:22 23.17691 109.51876 37030 ft 494 kts
2026-05-07 12:22 23.24443 109.53222 37043 ft 494 kts
2026-05-07 12:23 23.31206 109.54570 37048 ft 495 kts
2026-05-07 12:23 23.37983 109.55924 37049 ft 495 kts
2026-05-07 12:24 23.44720 109.57273 37057 ft 496 kts
2026-05-07 12:24 23.51515 109.58633 37044 ft 497 kts
2026-05-07 12:25 23.58317 109.59997 37041 ft 497 kts
2026-05-07 12:25 23.65122 109.61362 37045 ft 497 kts
2026-05-07 12:26 23.71921 109.62723 37044 ft 497 kts
2026-05-07 12:26 23.78713 109.64078 37050 ft 496 kts
2026-05-07 12:27 23.85501 109.65433 37044 ft 496 kts
2026-05-07 12:27 23.92281 109.66789 37050 ft 495 kts
2026-05-07 12:28 23.99055 109.68146 37054 ft 494 kts
2026-05-07 12:28 24.05820 109.69502 37047 ft 494 kts
2026-05-07 12:29 24.12579 109.70859 37051 ft 493 kts
2026-05-07 12:29 24.19332 109.72216 37051 ft 493 kts
2026-05-07 12:30 24.26007 109.73563 37041 ft 475 kts
2026-05-07 12:30 24.29206 109.74214 37042 ft 461 kts
2026-05-07 12:30 24.32310 109.74844 37050 ft 446 kts
2026-05-07 12:31 24.38350 109.76056 37065 ft 442 kts
2026-05-07 12:31 24.44345 109.77256 37065 ft 441 kts
2026-05-07 12:32 24.50373 109.78473 37063 ft 440 kts
2026-05-07 12:32 24.56379 109.79687 37065 ft 438 kts
2026-05-07 12:33 24.65348 109.81616 37070 ft 441 kts 11°
2026-05-07 12:33 24.71035 109.84304 37075 ft 451 kts 25°
2026-05-07 12:34 24.76288 109.88142 37088 ft 454 kts 29°
2026-05-07 12:34 24.81491 109.92095 37090 ft 455 kts 29°
2026-05-07 12:35 24.86736 109.96033 37091 ft 457 kts 28°
2026-05-07 12:35 24.92008 109.99957 37099 ft 458 kts 28°
2026-05-07 12:36 24.97301 110.03889 37105 ft 459 kts 28°
2026-05-07 12:36 25.02597 110.07831 37121 ft 459 kts 28°
2026-05-07 12:37 25.07893 110.11781 37115 ft 459 kts 28°
2026-05-07 12:37 25.13183 110.15730 37112 ft 459 kts 28°
2026-05-07 12:38 25.18472 110.19681 37124 ft 459 kts 28°
2026-05-07 12:38 25.23759 110.23627 37115 ft 458 kts 28°
2026-05-07 12:39 25.29046 110.27561 37115 ft 457 kts 28°
2026-05-07 12:39 25.34279 110.31461 37114 ft 456 kts 28°
2026-05-07 12:40 25.39536 110.35385 37123 ft 455 kts 28°
2026-05-07 12:40 25.44785 110.39297 37135 ft 455 kts 28°
2026-05-07 12:41 25.50050 110.43167 37133 ft 454 kts 28°
2026-05-07 12:41 25.55313 110.47042 37150 ft 454 kts 28°
2026-05-07 12:42 25.60627 110.50822 37147 ft 453 kts 25°
2026-05-07 12:42 25.65996 110.54495 37157 ft 454 kts 26°
2026-05-07 12:43 25.71358 110.58194 37173 ft 455 kts 26°
2026-05-07 12:43 25.76722 110.61914 37180 ft 454 kts 25°
2026-05-07 12:44 25.82125 110.65571 37153 ft 455 kts 25°
2026-05-07 12:44 25.87516 110.69213 37187 ft 453 kts 25°
2026-05-07 12:45 25.92898 110.72856 37182 ft 453 kts 25°
2026-05-07 12:45 25.98279 110.76512 37194 ft 454 kts 25°
2026-05-07 12:46 26.03663 110.80175 37203 ft 454 kts 25°
2026-05-07 12:46 26.09061 110.83845 37222 ft 455 kts 25°
2026-05-07 12:47 26.14493 110.87510 37207 ft 458 kts 25°
2026-05-07 12:47 26.19942 110.91195 37225 ft 459 kts 25°
2026-05-07 12:48 26.25386 110.94887 37226 ft 457 kts 25°
2026-05-07 12:48 26.30809 110.98569 37231 ft 455 kts 25°
2026-05-07 12:49 26.36163 111.02213 37197 ft 447 kts 25°
2026-05-07 12:49 26.41399 111.05776 37216 ft 442 kts 25°
2026-05-07 12:50 26.46631 111.09338 37216 ft 439 kts 25°
2026-05-07 12:50 26.51823 111.12878 37213 ft 437 kts 25°
2026-05-07 12:51 26.57014 111.16422 37223 ft 437 kts 25°
2026-05-07 12:51 26.62178 111.20055 37218 ft 441 kts 27°
2026-05-07 12:52 26.66435 111.23187 37222 ft 444 kts 27°
2026-05-07 12:52 26.71623 111.27009 37217 ft 448 kts 27°
2026-05-07 12:53 26.76848 111.30839 37217 ft 450 kts 27°
2026-05-07 12:53 26.82084 111.34673 37201 ft 450 kts 27°
2026-05-07 12:54 26.87313 111.38507 37201 ft 448 kts 27°
2026-05-07 12:54 26.92508 111.42313 37190 ft 444 kts 26°
2026-05-07 12:55 26.97784 111.45840 37210 ft 439 kts 23°
2026-05-07 12:55 27.03079 111.49253 37201 ft 438 kts 23°
2026-05-07 12:56 27.08344 111.52705 37209 ft 438 kts 24°
2026-05-07 12:56 27.13504 111.56125 37616 ft 419 kts 23°
2026-05-07 12:57 27.15972 111.57764 38371 ft 406 kts 23°
2026-05-07 12:57 27.18367 111.59359 38971 ft 397 kts 23°
2026-05-07 12:57 27.20733 111.60974 39112 ft 401 kts 24°
2026-05-07 12:57 27.23147 111.62637 38931 ft 414 kts 24°
2026-05-07 12:58 27.28124 111.66094 39048 ft 423 kts 24°
2026-05-07 12:58 27.30661 111.67857 38913 ft 435 kts 24°
2026-05-07 12:58 27.33271 111.69667 38742 ft 447 kts 24°
2026-05-07 12:59 27.35943 111.71519 38555 ft 457 kts 25°
2026-05-07 12:59 27.38615 111.73379 38336 ft 458 kts 25°
2026-05-07 12:59 27.41315 111.75263 38092 ft 454 kts 25°
2026-05-07 12:59 27.43991 111.77130 37849 ft 450 kts 25°
2026-05-07 13:00 27.46647 111.78978 37616 ft 447 kts 24°
2026-05-07 13:00 27.49296 111.80816 37391 ft 447 kts 24°
2026-05-07 13:00 27.51935 111.82649 37173 ft 447 kts 24°
2026-05-07 13:00 27.54591 111.84486 37144 ft 449 kts 24°
2026-05-07 13:01 27.59955 111.88191 37059 ft 449 kts 24°
2026-05-07 13:01 27.62576 111.90013 37038 ft 436 kts 24°
2026-05-07 13:01 27.65122 111.91785 37038 ft 424 kts 24°
2026-05-07 13:02 27.70136 111.95256 37072 ft 427 kts 24°
2026-05-07 13:02 27.75283 111.98819 37076 ft 439 kts 24°
2026-05-07 13:03 27.80466 112.02438 37065 ft 437 kts 24°
2026-05-07 13:03 27.85616 112.06054 37062 ft 434 kts 24°
2026-05-07 13:04 27.90729 112.09645 37059 ft 432 kts 24°
2026-05-07 13:04 27.95840 112.13232 37067 ft 433 kts 24°
2026-05-07 13:05 28.00999 112.16805 37077 ft 436 kts 23°
2026-05-07 13:05 28.06202 112.20384 37067 ft 439 kts 24°
2026-05-07 13:06 28.11275 112.24369 37078 ft 445 kts 28°
2026-05-07 13:06 28.16285 112.28478 37057 ft 444 kts 27°
2026-05-07 13:07 28.21314 112.32514 37064 ft 441 kts 27°
2026-05-07 13:07 28.26334 112.36482 37073 ft 439 kts 26°
2026-05-07 13:08 28.31333 112.40438 37068 ft 438 kts 26°
2026-05-07 13:08 28.36341 112.44413 37079 ft 440 kts 26°
2026-05-07 13:09 28.41325 112.48380 37064 ft 441 kts 27°
2026-05-07 13:09 28.46346 112.52385 37087 ft 441 kts 26°
2026-05-07 13:10 28.51378 112.56402 37074 ft 442 kts 26°
2026-05-07 13:10 28.56415 112.60428 37061 ft 442 kts 26°
2026-05-07 13:11 28.61445 112.64454 37060 ft 442 kts 26°
2026-05-07 13:11 28.66504 112.68508 37054 ft 441 kts 26°
2026-05-07 13:12 28.71489 112.72506 37071 ft 442 kts 26°
2026-05-07 13:12 28.76513 112.76539 37069 ft 442 kts 26°
2026-05-07 13:13 28.81539 112.80579 37058 ft 442 kts 26°
2026-05-07 13:13 28.86564 112.84625 37069 ft 442 kts 26°
2026-05-07 13:14 28.91587 112.88674 37067 ft 442 kts 26°
2026-05-07 13:14 28.96618 112.92733 37078 ft 443 kts 26°
2026-05-07 13:15 29.01648 112.96797 37076 ft 443 kts 26°
2026-05-07 13:15 29.06685 113.00872 37062 ft 443 kts 26°
2026-05-07 13:16 29.11714 113.04945 37063 ft 443 kts 26°
2026-05-07 13:16 29.16743 113.09023 37066 ft 443 kts 26°
2026-05-07 13:17 29.21764 113.13100 37064 ft 442 kts 26°
2026-05-07 13:17 29.24274 113.15138 36922 ft 445 kts 30°
2026-05-07 13:17 29.26790 113.17190 36909 ft 442 kts 27°
2026-05-07 13:18 29.31775 113.21246 36987 ft 439 kts 27°
2026-05-07 13:18 29.36901 113.25178 36942 ft 445 kts 20°
2026-05-07 13:19 29.42479 113.28493 37049 ft 460 kts 18°
2026-05-07 13:19 29.48308 113.31887 37047 ft 480 kts 19°
2026-05-07 13:20 29.54356 113.35467 37056 ft 497 kts 19°
2026-05-07 13:20 29.60588 113.39199 37048 ft 512 kts 20°
2026-05-07 13:21 29.66928 113.43013 37024 ft 513 kts 19°
2026-05-07 13:21 29.73196 113.46788 37032 ft 505 kts 19°
2026-05-07 13:22 29.79347 113.50482 37033 ft 500 kts 19°
2026-05-07 13:22 29.85573 113.54218 37059 ft 504 kts 19°
2026-05-07 13:23 29.91801 113.57966 37055 ft 510 kts 19°
2026-05-07 13:23 29.98153 113.61517 37042 ft 504 kts 15°
2026-05-07 13:24 30.04586 113.64686 37040 ft 502 kts 14°
2026-05-07 13:24 30.11011 113.67828 37047 ft 502 kts 14°
2026-05-07 13:25 30.17426 113.71010 37049 ft 502 kts 14°
2026-05-07 13:25 30.23835 113.74215 37047 ft 501 kts 14°
2026-05-07 13:26 30.30229 113.77419 37045 ft 500 kts 14°
2026-05-07 13:26 30.36610 113.80618 37087 ft 500 kts 14°
2026-05-07 13:27 30.42999 113.83824 37060 ft 500 kts 14°
2026-05-07 13:27 30.49374 113.87029 37058 ft 500 kts 14°
2026-05-07 13:28 30.55762 113.90245 37068 ft 500 kts 14°
2026-05-07 13:28 30.62135 113.93458 37088 ft 500 kts 14°
2026-05-07 13:29 30.68533 113.96611 37081 ft 499 kts 13°
2026-05-07 13:29 30.74899 113.99913 37097 ft 503 kts 17°
2026-05-07 13:30 30.81188 114.03488 37096 ft 502 kts 16°
2026-05-07 13:30 30.87522 114.06915 37094 ft 502 kts 15°
2026-05-07 13:31 30.93865 114.10333 37080 ft 502 kts 15°
2026-05-07 13:31 31.00162 114.13759 37066 ft 503 kts 16°
2026-05-07 13:32 31.06487 114.17205 37110 ft 502 kts 15°
2026-05-07 13:32 31.12823 114.20650 37082 ft 502 kts 15°
2026-05-07 13:33 31.19151 114.24099 37083 ft 502 kts 15°
2026-05-07 13:33 31.25485 114.27556 37074 ft 502 kts 15°
2026-05-07 13:34 31.35073 114.32225 37101 ft 488 kts
2026-05-07 13:35 31.41654 114.33494 37088 ft 471 kts 352°
2026-05-07 13:35 31.48104 114.33654 37086 ft 458 kts 351°
2026-05-07 13:36 31.54428 114.33777 37087 ft 453 kts 351°
2026-05-07 13:36 31.60674 114.33943 37102 ft 452 kts 351°
2026-05-07 13:37 31.66946 114.34133 37111 ft 452 kts 351°
2026-05-07 13:37 31.73248 114.34320 37113 ft 453 kts 351°
2026-05-07 13:38 31.79549 114.34459 37145 ft 454 kts 351°
2026-05-07 13:38 31.85873 114.34614 37122 ft 456 kts 351°
2026-05-07 13:39 31.92231 114.34823 37112 ft 457 kts 352°
2026-05-07 13:39 31.98587 114.35035 37120 ft 457 kts 352°
2026-05-07 13:40 32.03886 114.35206 37153 ft 457 kts 351°
2026-05-07 13:40 32.10259 114.35405 37141 ft 463 kts 352°
2026-05-07 13:41 32.16802 114.35607 37132 ft 474 kts 352°
2026-05-07 13:41 32.23400 114.35826 37124 ft 474 kts 352°
2026-05-07 13:42 32.29917 114.36152 37156 ft 476 kts 354°
2026-05-07 13:42 32.36538 114.36800 37125 ft 476 kts 355°
2026-05-07 13:42 32.39838 114.37131 36825 ft 477 kts 355°
2026-05-07 13:43 32.43152 114.37448 36444 ft 478 kts 355°
2026-05-07 13:43 32.46460 114.37753 36082 ft 477 kts 355°
2026-05-07 13:43 32.49768 114.38049 35720 ft 477 kts 355°
2026-05-07 13:43 32.53083 114.38343 35401 ft 478 kts 355°
2026-05-07 13:44 32.56404 114.38638 35052 ft 479 kts 355°
2026-05-07 13:44 32.59726 114.38935 34712 ft 479 kts 355°
2026-05-07 13:44 32.63057 114.39233 34366 ft 480 kts 355°
2026-05-07 13:44 32.66395 114.39534 34011 ft 481 kts 356°
2026-05-07 13:45 32.69732 114.39842 33636 ft 482 kts 356°
2026-05-07 13:45 32.73080 114.40156 33257 ft 482 kts 356°
2026-05-07 13:45 32.76425 114.40471 32908 ft 483 kts 356°
2026-05-07 13:45 32.79772 114.40787 32537 ft 483 kts 356°
2026-05-07 13:46 32.83122 114.41103 32168 ft 483 kts 356°
2026-05-07 13:46 32.86474 114.41418 31809 ft 483 kts 356°
2026-05-07 13:46 32.89818 114.41732 31455 ft 482 kts 356°
2026-05-07 13:46 32.93144 114.42045 31107 ft 482 kts 356°
2026-05-07 13:47 32.96486 114.42359 30762 ft 482 kts 356°
2026-05-07 13:47 32.99823 114.42673 30415 ft 481 kts 356°
2026-05-07 13:47 33.03161 114.42988 30092 ft 480 kts 356°
2026-05-07 13:47 33.06481 114.43302 29691 ft 478 kts 356°
2026-05-07 13:48 33.09789 114.43614 29299 ft 476 kts 356°
2026-05-07 13:48 33.13080 114.43924 28899 ft 474 kts 356°
2026-05-07 13:48 33.16365 114.44234 28511 ft 472 kts 356°
2026-05-07 13:48 33.19639 114.44543 28122 ft 469 kts 356°
2026-05-07 13:49 33.22817 114.44464 27701 ft 449 kts 342°
2026-05-07 13:49 33.25710 114.43293 27353 ft 431 kts 325°
2026-05-07 13:49 33.28109 114.41256 27002 ft 419 kts 313°
2026-05-07 13:49 33.30131 114.38794 26650 ft 413 kts 306°
2026-05-07 13:50 33.31769 114.36008 26283 ft 407 kts 294°
2026-05-07 13:50 33.32762 114.32874 25950 ft 403 kts 287°
2026-05-07 13:50 33.33668 114.29704 25601 ft 402 kts 288°
2026-05-07 13:50 33.34632 114.26561 25250 ft 404 kts 289°
2026-05-07 13:51 33.35999 114.23621 24895 ft 417 kts 304°
2026-05-07 13:51 33.38116 114.21143 24575 ft 425 kts 317°
2026-05-07 13:51 33.40603 114.19187 24221 ft 432 kts 327°
2026-05-07 13:51 33.43393 114.17977 23776 ft 433 kts 339°
2026-05-07 13:52 33.46300 114.17122 23266 ft 427 kts 340°
2026-05-07 13:52 33.49166 114.16318 22740 ft 420 kts 341°
2026-05-07 13:52 33.51980 114.15519 22213 ft 413 kts 341°
2026-05-07 13:52 33.54743 114.14708 21729 ft 407 kts 341°
2026-05-07 13:53 33.57474 114.13886 21224 ft 400 kts 341°
2026-05-07 13:53 33.60156 114.13063 20739 ft 395 kts 341°
2026-05-07 13:53 33.62799 114.12244 20257 ft 390 kts 342°
2026-05-07 13:53 33.65406 114.11432 19781 ft 385 kts 342°
2026-05-07 13:54 33.67986 114.10628 19315 ft 380 kts 343°
2026-05-07 13:54 33.70533 114.09834 18859 ft 376 kts 343°
2026-05-07 13:54 33.73053 114.09048 18396 ft 372 kts 344°
2026-05-07 13:54 33.75546 114.08271 17860 ft 368 kts 344°
2026-05-07 13:55 33.78011 114.07503 17344 ft 365 kts 344°
2026-05-07 13:55 33.80457 114.06740 16819 ft 362 kts 344°
2026-05-07 13:55 33.82886 114.05985 16346 ft 358 kts 344°
2026-05-07 13:55 33.85287 114.05233 15855 ft 355 kts 344°
2026-05-07 13:56 33.87670 114.04486 15373 ft 353 kts 344°
2026-05-07 13:56 33.90032 114.03741 14899 ft 350 kts 344°
2026-05-07 13:56 33.92378 114.02993 14427 ft 347 kts 344°
2026-05-07 13:56 33.94708 114.02248 13965 ft 345 kts 344°
2026-05-07 13:57 33.97018 114.01508 13447 ft 343 kts 345°
2026-05-07 13:57 33.99316 114.00773 12935 ft 340 kts 345°
2026-05-07 13:57 34.01599 114.00042 12428 ft 338 kts 345°
2026-05-07 13:57 34.03861 113.99318 11931 ft 335 kts 345°
2026-05-07 13:58 34.06110 113.98597 11445 ft 333 kts 345°
2026-05-07 13:58 34.08338 113.97884 10963 ft 330 kts 345°
2026-05-07 13:58 34.10534 113.97180 10712 ft 321 kts 345°
2026-05-07 13:58 34.12637 113.96506 10700 ft 304 kts 345°
2026-05-07 13:59 34.14629 113.95866 10691 ft 289 kts 345°
2026-05-07 13:59 34.16522 113.95259 10694 ft 274 kts 345°
2026-05-07 13:59 34.18316 113.94682 10688 ft 260 kts 345°
2026-05-07 13:59 34.20017 113.94136 10693 ft 246 kts 345°
2026-05-07 14:00 34.21660 113.93608 10710 ft 246 kts 345°
2026-05-07 14:00 34.23293 113.93084 10688 ft 247 kts 345°
2026-05-07 14:00 34.24985 113.92540 10436 ft 249 kts 345°
2026-05-07 14:00 34.26643 113.92006 10094 ft 250 kts 346°
2026-05-07 14:01 34.28328 113.91464 9708 ft 251 kts 346°
2026-05-07 14:01 34.30019 113.90920 9323 ft 252 kts 346°
2026-05-07 14:01 34.31714 113.90374 8946 ft 253 kts 345°
2026-05-07 14:01 34.33417 113.89827 8577 ft 253 kts 345°
2026-05-07 14:02 34.35126 113.89275 8203 ft 254 kts 345°
2026-05-07 14:02 34.36837 113.88722 7833 ft 255 kts 344°
2026-05-07 14:02 34.38410 113.87821 7433 ft 253 kts 321°
2026-05-07 14:02 34.39548 113.86200 7128 ft 254 kts 302°
2026-05-07 14:03 34.40288 113.84256 6879 ft 254 kts 295°
2026-05-07 14:03 34.40920 113.82275 6628 ft 251 kts 294°
2026-05-07 14:03 34.41547 113.80318 6364 ft 248 kts 294°
2026-05-07 14:03 34.42175 113.78386 6093 ft 245 kts 295°
2026-05-07 14:04 34.42802 113.76478 5847 ft 243 kts 294°
2026-05-07 14:04 34.43423 113.74590 5586 ft 240 kts 294°
2026-05-07 14:04 34.44043 113.72713 5323 ft 238 kts 293°
2026-05-07 14:04 34.44653 113.70867 5079 ft 236 kts 293°
2026-05-07 14:05 34.45258 113.69037 4882 ft 229 kts 293°
2026-05-07 14:05 34.45843 113.67268 4643 ft 224 kts 293°
2026-05-07 14:05 34.46420 113.65524 4375 ft 222 kts 293°
2026-05-07 14:05 34.46990 113.63799 4129 ft 219 kts 293°
2026-05-07 14:06 34.47540 113.62133 4046 ft 207 kts 293°
2026-05-07 14:06 34.48069 113.60576 3989 ft 195 kts 295°
2026-05-07 14:06 34.48619 113.59049 4014 ft 211 kts 296°
2026-05-07 14:06 34.49266 113.57268 4058 ft 244 kts 295°
2026-05-07 14:07 34.49953 113.55365 4006 ft 248 kts 295°
2026-05-07 14:07 34.50642 113.53448 3973 ft 249 kts 295°
2026-05-07 14:07 34.51330 113.51530 3731 ft 246 kts 295°
2026-05-07 14:07 34.52007 113.49644 3465 ft 242 kts 294°
2026-05-07 14:08 34.52742 113.47849 3178 ft 232 kts 308°
2026-05-07 14:08 34.53956 113.46730 2957 ft 210 kts 344°
2026-05-07 14:08 34.55315 113.46515 2894 ft 195 kts 11°
2026-05-07 14:08 34.56559 113.47059 2926 ft 190 kts 27°
2026-05-07 14:09 34.57795 113.47703 2902 ft 195 kts 25°
2026-05-07 14:09 34.59044 113.48338 2894 ft 194 kts 25°
2026-05-07 14:09 34.60291 113.48974 2887 ft 194 kts 25°
2026-05-07 14:09 34.61477 113.49706 2885 ft 189 kts 41°
2026-05-07 14:10 34.62250 113.50961 2886 ft 185 kts 65°
2026-05-07 14:10 34.62753 113.52379 2883 ft 183 kts 80°
2026-05-07 14:10 34.62512 113.53897 2910 ft 190 kts 115°
2026-05-07 14:10 34.61901 113.55334 2908 ft 192 kts 115°
2026-05-07 14:11 34.61305 113.56784 2901 ft 191 kts 114°
2026-05-07 14:11 34.60759 113.58250 2914 ft 190 kts 112°
2026-05-07 14:11 34.60240 113.59727 2919 ft 190 kts 111°
2026-05-07 14:11 34.59731 113.61212 2914 ft 191 kts 111°
2026-05-07 14:12 34.59227 113.62694 2911 ft 189 kts 111°
2026-05-07 14:12 34.58726 113.64164 2920 ft 189 kts 110°
2026-05-07 14:12 34.58224 113.65645 2922 ft 190 kts 111°
2026-05-07 14:12 34.57721 113.67125 2922 ft 190 kts 111°
2026-05-07 14:13 34.57215 113.68613 2922 ft 191 kts 111°
2026-05-07 14:13 34.56717 113.70079 2670 ft 183 kts 110°
2026-05-07 14:13 34.56250 113.71449 2434 ft 168 kts 110°
2026-05-07 14:13 34.55825 113.72699 2247 ft 156 kts 110°
2026-05-07 14:14 34.55411 113.73919 2048 ft 155 kts 110°
2026-05-07 14:14 34.55004 113.75117 1838 ft 155 kts 109°
2026-05-07 14:14 34.54598 113.76311 1611 ft 148 kts 109°
2026-05-07 14:14 34.54219 113.77422 1414 ft 139 kts 109°
2026-05-07 14:15 34.53852 113.78498 1225 ft 138 kts 110°
2026-05-07 14:15 34.53480 113.79564 1019 ft 138 kts 110°
2026-05-07 14:15 34.53113 113.80643 836 ft 138 kts 111°
2026-05-07 14:15 34.52757 113.81715 655 ft 138 kts 111°
2026-05-07 14:16 34.52387 113.82809 526 ft 135 kts 110°
2026-05-07 14:16 34.52080 113.83769 508 ft 115 kts 108°
2026-05-07 14:16 34.51729 113.84900 1067 ft 165 kts 109°
2026-05-07 14:16 34.51048 113.86031 2650 ft 173 kts 147°
2026-05-07 14:17 34.49772 113.86370 3869 ft 199 kts 171°
2026-05-07 14:17 34.48406 113.86506 4316 ft 195 kts 178°
2026-05-07 14:17 34.47066 113.86240 4487 ft 207 kts 211°
2026-05-07 14:17 34.46079 113.84954 4568 ft 215 kts 245°
2026-05-07 14:18 34.45751 113.83255 5029 ft 198 kts 269°
2026-05-07 14:18 34.45587 113.81625 5518 ft 190 kts 265°
2026-05-07 14:18 34.45364 113.80112 6083 ft 179 kts 264°
2026-05-07 14:18 34.45184 113.78625 5864 ft 175 kts 280°
2026-05-07 14:19 34.45570 113.77261 5444 ft 171 kts 296°
2026-05-07 14:19 34.45958 113.75894 5081 ft 173 kts 290°
2026-05-07 14:19 34.46271 113.74480 4704 ft 173 kts 285°
2026-05-07 14:19 34.46547 113.72977 4538 ft 199 kts 283°
2026-05-07 14:20 34.46803 113.71303 4362 ft 204 kts 281°
2026-05-07 14:20 34.47017 113.69589 4151 ft 207 kts 279°
2026-05-07 14:20 34.47203 113.67861 3952 ft 207 kts 278°
2026-05-07 14:20 34.47372 113.66125 3789 ft 206 kts 277°
2026-05-07 14:21 34.47543 113.64424 3765 ft 203 kts 283°
2026-05-07 14:21 34.48234 113.63006 3629 ft 197 kts 326°
2026-05-07 14:21 34.49498 113.62624 3407 ft 188 kts 11°
2026-05-07 14:21 34.50690 113.63185 3222 ft 183 kts 31°
2026-05-07 14:22 34.51772 113.63989 3098 ft 181 kts 34°
2026-05-07 14:22 34.52833 113.64816 3058 ft 181 kts 35°
2026-05-07 14:22 34.53893 113.65650 3030 ft 181 kts 35°
2026-05-07 14:22 34.54936 113.66476 3029 ft 182 kts 35°
2026-05-07 14:23 34.56007 113.67331 2983 ft 181 kts 38°
2026-05-07 14:23 34.56752 113.68495 2824 ft 180 kts 73°
2026-05-07 14:23 34.56700 113.70001 2603 ft 179 kts 107°
2026-05-07 14:23 34.56250 113.71378 2446 ft 177 kts 109°
2026-05-07 14:24 34.55814 113.72727 2227 ft 166 kts 110°
2026-05-07 14:24 34.55393 113.73974 2012 ft 156 kts 110°
2026-05-07 14:24 34.54985 113.75176 1822 ft 154 kts 109°
2026-05-07 14:24 34.54572 113.76391 1634 ft 157 kts 110°
2026-05-07 14:25 34.54155 113.77614 1395 ft 153 kts 109°
2026-05-07 14:25 34.53770 113.78748 1171 ft 138 kts 110°
2026-05-07 14:25 34.53409 113.79801 971 ft 136 kts 111°
2026-05-07 14:25 34.53045 113.80862 776 ft 136 kts 111°
2026-05-07 14:26 34.52687 113.81912 621 ft 133 kts 111°
2026-05-07 14:26 34.52335 113.82960 511 ft 130 kts 111°
2026-05-07 14:26 34.52052 113.83782 504 ft 76 kts 112°
2026-05-07 14:26 34.51912 113.84243 504 ft 38 kts 94°
2026-05-07 14:27 34.51914 113.84382 506 ft 11 kts 87°
2026-05-07 14:27 34.51919 113.84474 508 ft 11 kts 85°
2026-05-07 14:27 34.51923 113.84537 509 ft 12 kts 85°
2026-05-07 14:27 34.51924 113.84682 509 ft 14 kts 105°
2026-05-07 14:28 34.51900 113.84762 509 ft 16 kts 112°
2026-05-07 14:28 34.51856 113.84919 509 ft 12 kts 82°
2026-05-07 14:28 34.51898 113.84963 510 ft 14 kts 19°
2026-05-07 14:28 34.51997 113.85008 510 ft 17 kts 22°
2026-05-07 14:29 34.52119 113.85068 510 ft 21 kts 22°
2026-05-07 14:29 34.52261 113.85140 510 ft 24 kts 22°
2026-05-07 14:29 34.52425 113.85223 510 ft 27 kts 22°
2026-05-07 14:29 34.52555 113.85289 510 ft 9 kts 22°
2026-05-07 14:30 34.52618 113.85309 510 ft 9 kts 349°
2026-05-07 14:30 34.52658 113.85238 510 ft 12 kts 291°
2026-05-07 14:30 34.52682 113.85171 510 ft 1 kts 293°
2026-05-07 14:30 34.52687 113.85155 510 ft 3 kts 292°
2026-05-07 14:31 34.52689 113.85150 510 ft 0 kts 292°